{"data":{"norad_id":55492,"intl_designator":"2023-015AV","name":"STARLINK-5013","alt_names":[],"object_type":"PAYLOAD","status":"ACTIVE","operator":null,"country":"US","launch_date":"2023-02-02","launch_site_code":"AFETR","launch_vehicle":null,"mission":null,"orbit_class":"UNKNOWN","rcs_meters":null,"size_class":null,"mass_kg":null,"dimensions":null,"purposes":["comms"],"wikipedia_slug":null,"has_3d_model":false,"image_url":null,"decayed_at":null,"tle_current":{"epoch":"2026-09-20T20:41:53.830176Z","epoch_age_seconds":69113,"freshness":"FRESH","line1":"1 55492U 23015AV  26263.86242859 -.00000470  00000+0 -75417-5 0  9990","line2":"2 55492  43.0030 317.5516 0001090 290.5229  69.5506 15.27575952200443","mean_motion":15.27575952,"eccentricity":0.000109,"inclination_deg":43.003,"raan_deg":317.5516,"arg_perigee_deg":290.5229,"mean_anomaly_deg":69.5506,"bstar":-7.5417e-6,"rev_number":20044,"period_min":94.266998515829,"perigee_km":482.313346629,"apogee_km":483.80908784036,"semimajor_km":6861.1982172347,"source":"CELESTRAK","updated_at":"2026-09-21T09:00:33.259209Z"}}}